Location: Hawks Ness
(60.2333°N, 1.1667°W)
Time: 23:19:08
(UTC+00:00)

Meteor PRIRODA - Pass Details

Date: 22 October 2019
Orbit: 492 x 511 km, 97.5° (Epoch: 16 November)

Event Time Altitude Azimuth Distance (km) Brightness Sun altitude
Rises 05:25:02 0° 16° (NNE) 2,642 7.5 -12.5°
Reaches altitude 10° 05:27:08 10° 16° (NNE) 1,750 6.6 -12.2°
Maximum altitude 05:30:55 89° 295° (WNW) 521 3.6 -11.8°
Drops below altitude 10° 05:34:40 10° 198° (SSW) 1,732 6.2 -11.3°
Sets 05:36:44 0° 199° (SSW) 2,612 7.1 -11.0°
